DELTA 1 DEB, 10629

Orbit data source: Space-Track

DELTA 1 DEB, 10629 is space debris in LEO originally from a launch on Thu, 14 Jul 1977 UTC launched from the Air Force Eastern Test Range (AFETR). Debris objects in space refer to the collection of defunct objects orbiting the Earth. Examples of debris include non-operational satellites, rocket bodies, and fragments generated from explosions, collisions, or faulty payload assembly.

Loading next visibility...
Identifier
10629, 1977-065EY
Orbit
LEO
Country
Flag of USUS
Related business
Manufacturer
Unknown
Mission
Spacecraft
Bus & Motor
Unknown
Mass
Unknown
Launch date (UTC)
1977-07-14 (48 years ago)
Launch vehicle
Unknown
Launch site
Air Force Eastern Test Range (AFETR)
Object type
Payload
Rocket body
Debris
Shape & HBR
Unknown shape, 0.1 m
Radar Cross Section
Small (<0.1 m²)

Expand to show TLE details & history
Last TLE update: 19 hours ago

TLE from 19 hours ago
0 DELTA 1 DEB
1 10629U 77065EY  25347.92850062  .00000726  00000-0  69148-3 0  9992
2 10629  29.8269 185.0830 0814053 195.8556 161.5012 12.80076551254294
Epoch: 2025-12-13T22:17Z
TLE epoch observation values (Epoch: 2025-12-13T22:17:02.453Z)
Latitude
-0.00001°
Longitude
127.97403°
Altitude
1,940.09 km
Speed
6.651 km/s
True Right ascension
12h 20m 19s
True Declination
0° 00' 00"
Sunlit
Object was in daylight at epoch
Visualization orbit readout
Latitude
Unknown
Longitude
Unknown
Altitude
Unknown
Speed
Unknown
Apparent Right ascension
Unknown
Apparent Declination
Unknown
Sunlit
N/A
Visualization observer readout
Local Sidereal Time
15:53:34
Azimuth
Unknown
Elevation
Unknown
Doppler factor
Unknown
Orbital elements
Apogee altitude
1,973.48 km
Perigee altitude
716.105 km
Semi-major axis
7,722.929 km
Eccentricity
0.08141
Inclination
29.8269°
RAAN
185.083°
Arg. of periapsis
195.8556°
True anomaly
164.19869°
Mean anomaly
161.5012°
Eccentric anomaly
162.87463°
Mean motion
3.19794 °/min
Orbital period
112.57 mins
BSTAR
0.00069148
Loading maneuver chart data...
Computing Atmospheric mass density...

Documentation

Showing up to 5 results
|